Weather History for Amarillo, TX

Change the Weather History Date:

Sunday, September 15, 2013

  Actual Average Record
Temperature  
Mean Temperature 76 °F 70 °F  
Max Temperature 86 °F 83 °F 98 °F (2010)
Min Temperature 66 °F 57 °F 39 °F (1993)
Degree Days  
Heating Degree Days 0 1  
Month to date heating degree days 0 6  
Since 1 July heating degree days 0 7  
Cooling Degree Days 11 6  
Month to date cooling degree days 204 118  
Year to date cooling degree days 1700 1310  
Growing Degree Days 26 (Base 50)    
Moisture  
Dew Point 55 °F    
Average Humidity 55    
Maximum Humidity 87    
Minimum Humidity 23    
Precipitation  
Precipitation 0.06 in 0.06 in 2.72 in (1923)
Month to date precipitation 0.07 1.00  
Year to date precipitation 12.44 16.27  
Snow  
Snow 0.00 in 0.00 in 0.00 in ()
Month to date snowfall 0.0 0.0  
Since 1 July snowfall 0.0 0.0  
Since 1 September snowfall 0.0 0.0  
Snow Depth 0.00 in    
Sea Level Pressure  
Sea Level Pressure 29.93 in    
Wind  
Wind Speed 10 mph (South)    
Max Wind Speed 24 mph    
Max Gust Speed 29 mph    
Visibility 10 miles    
Events Thunderstorm    
T = Trace of Precipitation, MM = Missing Value Source: NWS Daily Summary

Daily Weather History Graph

Daily Weather History Graph

Search for Another Location

Airport:

Trip Planner

Search our weather history database for the weather conditions in past years. The results will help you decide how hot, cold, wet, or windy it might be!

Date:

Astronomy

Sep. 15, 2013 Rise Set
Actual Time 7:29 AM CDT 7:53 PM CDT
Civil Twilight 7:04 AM CDT 8:18 PM CDT
Nautical Twilight 6:34 AM CDT 8:48 PM CDT
Astronomical Twilight 6:04 AM CDT 9:18 PM CDT
Moon 5:16 PM CDT (9/15) 3:17 AM CDT (9/15)
Length of Visible Light 13h 14m
Length of Day
12h 23m
Waxing Gibbous, 82% of the Moon is Illuminated
Sep 15
Waxing Gibbous
Sep 19
Full
Sep 26
Last Quarter
Oct 4
New
Oct 11
First Quarter

Hourly Weather History & Observations

Time (CDT) Temp. Dew Point Humidity Pressure Visibility Wind Dir Wind Speed Gust Speed Precip Events Conditions
12:53 AM 68.0 °F 61.0 °F 78% 29.88 in 10.0 mi SE 9.2 mph - N/A   Clear
1:53 AM 66.9 °F 61.0 °F 81% 29.86 in 10.0 mi SSE 9.2 mph - N/A   Scattered Clouds
2:53 AM 66.9 °F 62.1 °F 84% 29.87 in 10.0 mi SE 10.4 mph - N/A   Clear
3:53 AM 68.0 °F 61.0 °F 78% 29.86 in 10.0 mi SSE 10.4 mph - N/A   Clear
4:53 AM 66.0 °F 60.1 °F 81% 29.87 in 10.0 mi South 8.1 mph - N/A   Clear
5:53 AM 66.9 °F 57.0 °F 70% 29.88 in 10.0 mi South 9.2 mph - N/A   Clear
6:53 AM 68.0 °F 53.1 °F 59% 29.90 in 10.0 mi SW 11.5 mph - N/A   Clear
7:53 AM 66.0 °F 52.0 °F 60% 29.93 in 10.0 mi SW 9.2 mph - N/A   Clear
8:53 AM 68.0 °F 53.1 °F 59% 29.95 in 10.0 mi SW 9.2 mph - N/A   Mostly Cloudy
9:53 AM 73.9 °F 52.0 °F 46% 29.95 in 10.0 mi SW 11.5 mph - N/A   Clear
10:53 AM 80.1 °F 52.0 °F 38% 29.96 in 10.0 mi SSW 20.7 mph 25.3 mph N/A   Scattered Clouds
11:53 AM 80.1 °F 51.1 °F 36% 29.97 in 10.0 mi SW 17.3 mph - N/A   Clear
12:53 PM 84.0 °F 48.9 °F 29% 29.96 in 10.0 mi SW 8.1 mph 20.7 mph N/A   Scattered Clouds
1:53 PM 84.9 °F 43.0 °F 23% 29.96 in 10.0 mi South 15.0 mph 24.2 mph N/A   Partly Cloudy
2:53 PM 82.9 °F 48.9 °F 31% 29.96 in 10.0 mi SW 12.7 mph - N/A   Overcast
3:53 PM 82.9 °F 51.1 °F 33% 29.94 in 10.0 mi South 5.8 mph - N/A   Overcast
4:53 PM 84.0 °F 50.0 °F 31% 29.92 in 10.0 mi South 6.9 mph - N/A   Overcast
5:53 PM 77.0 °F 55.9 °F 48% 29.94 in 10.0 mi NNW 4.6 mph - N/A   Mostly Cloudy
6:53 PM 77.0 °F 55.0 °F 47% 29.94 in 10.0 mi NNE 6.9 mph - N/A   Overcast
7:53 PM 77.0 °F 55.0 °F 47% 29.96 in 10.0 mi NNE 4.6 mph - N/A   Mostly Cloudy
8:53 PM 72.0 °F 57.0 °F 59% 29.97 in 10.0 mi NE 6.9 mph - 0.00 in   Mostly Cloudy
9:53 PM 75.0 °F 55.0 °F 50% 29.98 in 10.0 mi East 10.4 mph - N/A   Mostly Cloudy
10:53 PM 72.0 °F 55.9 °F 57% 29.99 in 10.0 mi East 8.1 mph - N/A   Partly Cloudy
11:53 PM 71.1 °F 57.0 °F 61% 30.01 in 10.0 mi SSW 6.9 mph - N/A Thunderstorm Scattered Clouds